SCP
0 0 0 -0 -0 -0 -0 -0 -0 -0 0 0 0 0 0 0 -0 -0 0 0 -0 0 0 -0 -0 0 -0 0 0 0 0 0 -0 -0 -0 -0 0 0 -0 0 -0 -0 0 -0 -0 -0 -0
0 0 0 -0 -0 -0 -0 -0 -0 -0 -0 0 0 0 0 0 -0 0 0 0 0 0 0 -0 -0 -0 0 0 0 0 0 0 -0 -0 -0 -0 -0 0 0 0 0 0 0 -0 -0 -0 0
0 0 0 -0 -0 -0 -0 -0 -0 -0 -0 -0 0 0 0 0 0 0 0 0 0 0 0 -0 -0 -0 0 0 0 0 0 0 0 -0 -0 -0 0 -0 0 0 0 0 0 -0 -0 -0 0
0 0 0 0 -0 -0 -0 -0 -0 -0 -0 -0 0 0 0 0 -0 -0 0 0 0 0 0 -0 -0 -0 0 0 0 -0 0 0 -0 0 0 0 0 -0 -0 0 -0 0 -0 -0 0 0 0
0 0 0 0 -0 -0 -0 -0 -0 -0 -0 -0 0 0 0 0 0 0 0 -0 -0 -0 0 -0 0 0 0 0 0 0 -0 0 0 -0 -0 0 0 0 0 -0 0 -0 0 0 0 -0 0
0 0 0 -0 -0 -0 -0 -0 -0 -0 -0 -0 0 0 0 0 0 0 0 -0 0 0 0 0 0 0 -0 0 0 0 0 -0 0 -0 -0 -0 -0 -0 -0 0 0 0 0 0 0 -0 -0
0 0 0 -0 -0 -0 -0 -0 -0 -0 -0 -0 0 0 0 0 0 0 0 0 0 0 -0 -0 0 0 0 -0 -0 0 -0 -0 0 0 0 0 0 0 0 0 0 0 0 -0 -0 -0 -0
-0 -0 -0 -0 -0 -0 -0 -0 -0 -0 -0 -0 0 0 0 0 0 0 0 -0 -0 -0 -0 0 -0 -0 -0 -0 -0 0 -0 0 -0 0 0 -0 0 0 0 0 0 0 0 0 -0 -0 -0
-0 -0 -0 -0 -0 -0 -0 -0 -0 -0 -0 0 0 0 0 0 0 -0 -0 -0 -0 -0 -0 -0 -0 0 -0 -0 -0 -0 -0 -0 0 -0 -0 -0 -0 0 0 0 0 0 0 -0 -0 -0 -0
0 0 -0 -0 -0 -0 -0 -0 -0 -0 -0 0 0 0 0 -0 -0 -0 -0 -0 -0 -0 0 -0 -0 -0 -0 0 -0 -0 -0 -0 -0 -0 -0 -0 0 0 -0 -0 -0 0 0 0 0 0 -0
0 0 0 -0 -0 -0 -0 -0 -0 -0 -0 0 0 0 0 -0 -0 -0 -0 -0 -0 0 0 0 -0 -0 0 -0 -0 -0 -0 0 0 0 0 0 0 0 -0 -0 0 0 0 0 0 -0 0
0 0 0 0 -0 -0 -0 -0 -0 0 0 0 0 0 -0 -0 -0 -0 -0 -0 -0 -0 0 0 -0 -0 -0 -0 0 -0 -0 -0 0 -0 -0 0 0 -0 -0 0 0 0 0 0 0 -0 0
0 0 0 0 0 0 0 0 -0 0 0 0 0 0 -0 -0 0 -0 -0 -0 -0 0 0 -0 0 -0 0 -0 -0 -0 -0 -0 -0 -0 -0 0 0 0 0 0 0 0 0 0 0 -0 0
0 0 0 0 0 0 0 0 0 0 0 0 0 -0 0 -0 -0 -0 -0 -0 0 0 -0 0 0 0 0 -0 -0 -0 -0 -0 -0 -0 0 -0 0 0 0 0 0 0 0 0 0 0 0
0 0 0 0 0 0 0 0 0 0 0 0 0 0 0 -0 -0 -0 -0 0 0 0 0 -0 -0 0 -0 -0 0 0 0 -0 -0 0 0 0 0 0 0 -0 -0 0 0 -0 0 -0 0
0 0 0 0 0 0 0 0 0 0 0 0 0 0 0 0 -0 -0 -0 0 0 0 0 0 0 0 0 -0 0 0 0 0 0 0 0 0 0 0 0 -0 0 0 0 0 0 0 0
0 0 0 0 0 0 0 0 0 0 0 0 0 0 0 0 0 -0 -0 0 0 0 0 0 0 0 0 0 0 0 0 0 0 0 0 -0 -0 0 0 -0 -0 0 0 -0 0 0 0
0 0 0 0 0 0 0 0 0 0 0 0 0 0 0 0 0 -0 -0 0 0 0 0 -0 0 0 0 0 -0 0 0 0 0 -0 0 0 -0 -0 0 0 0 0 0 -0 0 -0 0
0 0 0 0 0 0 0 0 0 0 0 0 0 0 0 0 0 -0 -0 0 0 -0 0 0 0 0 0 0 0 0 0 0 0 -0 -0 -0 0 -0 -0 -0 -0 0 0 0 0 0 0
0 0 0 0 0 0 0 0 0 0 0 0 0 0 0 0 -0 0 0 0 0 -0 -0 0 0 0 0 0 0 0 0 0 0 0 0 0 0 0 0 0 0 0 0 -0 0 0 -0
0 0 0 0 0 0 0 0 0 0 0 0 0 0 0 0 0 -0 -0 0 -0 0 0 -0 0 0 0 0 0 0 0 0 0 0 0 0 0 0 0 0 0 0 0 0 -0 0 0
0 0 0 0 0 0 0 0 0 0 0 0 0 0 0 0 0 0 0 0 0 0 0 -0 0 0 0 0 0 0 0 0 0 0 0 0 0 0 0 0 0 0 0 0 0 -0 0
0 0 0 0 0 0 0 0 0 0 0 0 0 0 0 0 0 0 0 0 -0 -0 -0 0 0 0 0 0 0 0 0 0 0 0 0 0 0 0 0 0 0 0 0 0 0 0 0
0 0 0 0 0 0 0 0 0 0 0 0 0 0 0 0 0 0 -0 0 0 -0 0 0 0 0 0 0 0 0 0 0 0 0 0 0 0 0 0 0 0 0 0 0 0 0 0
0 0 0 0 0 0 0 0 0 0 0 0 0 0 0 0 0 0 -0 0 0 0 0 -0 0 0 0 0 0 0 0 0 0 0 0 0 0 0 0 0 0 0 0 0 0 0 0
0 0 0 0 0 0 0 0 0 0 0 0 0 0 0 0 0 0 0 0 0 0 0 -0 0 0 0 0 0 0 -0 0 0 0 0 0 0 0 -0 0 0 0 0 0 0 0 0
0 0 0 0 0 0 0 0 0 0 0 0 0 0 0 0 0 0 0 0 0 0 0 0 0 0 0 -0 0 0 0 0 0 0 0 0 0 0 0 0 0 0 0 0 0 0 0
0 0 0 0 0 0 0 0 0 0 0 0 0 0 0 0 0 0 0 0 0 0 0 0 0 0 0 -0 0 0 0 0 0 0 0 0 0 -0 0 0 0 0 0 0 0 0 0
0 0 0 0 0 0 0 0 0 0 0 0 0 0 0 0 0 0 0 0 0 0 0 0 -0 0 0 0 0 0 0 0 0 0 0 0 0 -0 0 0 0 0 0 0 0 0 0
Wind_Speed_500mb
24 22 19 16 14 12 11 10 11 12 14 15 17 18 18 17 14 16 19 21 22 21 16 12 6 9 16 11 12 10 7 18 21 11 17 20 21 24 24 5 10 24 10 24 28 35 15
27 24 20 17 15 13 12 11 12 13 15 16 17 18 19 16 14 16 19 23 24 19 16 11 4 13 2 6 8 5 12 17 16 16 16 20 18 10 15 8 6 5 6 31 21 23 13
29 25 20 18 17 15 13 13 13 14 15 16 17 18 18 15 14 16 21 24 20 14 16 15 19 13 7 15 10 12 11 10 17 16 17 17 12 20 4 15 11 19 18 21 23 23 15
31 27 23 20 17 16 15 14 14 15 16 16 17 18 18 14 13 18 23 19 11 10 14 17 15 13 12 10 7 8 9 6 16 15 13 14 14 21 24 13 11 22 22 18 16 11 13
32 29 24 22 19 17 16 16 15 16 16 16 17 18 16 12 13 19 25 9 6 9 9 8 6 5 18 8 8 10 6 5 13 16 16 13 14 29 19 24 28 21 8 10 18 9 14
32 31 26 22 20 19 18 18 18 18 16 15 16 17 16 10 11 18 21 6 4 11 7 6 8 14 13 9 5 11 6 8 14 17 16 21 21 21 26 27 7 9 2 16 21 15 17
36 32 29 26 22 21 20 20 20 20 18 15 15 16 13 8 8 15 23 12 5 5 14 18 15 10 11 9 11 14 9 9 16 22 24 32 24 26 33 13 8 19 17 23 22 22 27
38 35 33 30 26 24 22 21 21 22 20 16 14 14 12 6 4 10 17 15 20 9 3 9 8 6 2 5 19 14 13 15 19 25 22 19 26 30 9 4 14 24 7 21 18 25 23
36 36 35 33 30 28 25 23 22 22 21 18 15 13 11 5 4 8 8 10 15 14 16 12 9 9 16 17 11 18 19 10 19 12 21 25 20 19 7 14 22 23 6 13 24 14 8
34 34 34 35 34 31 29 27 25 24 22 20 15 12 9 4 1 7 2 11 18 9 12 23 15 11 8 14 14 8 7 10 9 12 15 20 19 2 23 26 21 29 6 3 3 24 11
32 33 33 33 33 34 32 30 29 27 25 23 17 11 10 14 8 6 8 16 14 8 10 8 14 7 7 13 19 16 9 12 11 12 19 10 9 20 25 23 14 3 7 15 5 24 23
32 33 33 33 33 33 33 33 31 29 26 24 20 13 11 10 20 13 14 19 14 16 3 12 10 16 19 13 9 15 16 14 6 7 17 9 8 17 21 10 14 20 10 13 16 23 24
34 34 34 33 33 34 33 33 33 32 29 25 21 16 16 15 7 11 14 14 17 14 10 12 7 15 19 18 15 18 17 23 17 19 24 15 21 21 14 22 20 26 32 20 20 18 8
34 35 35 34 33 33 33 33 34 34 32 26 21 17 18 22 18 14 11 20 24 12 8 11 7 8 10 9 15 10 13 14 8 22 8 16 25 27 22 33 14 24 38 20 1 11 12
35 35 35 35 34 34 34 33 34 34 34 26 16 10 14 15 20 16 19 22 13 2 7 9 14 19 16 14 13 11 12 16 12 18 17 6 13 17 14 20 22 10 28 37 13 24 8
38 36 34 35 34 35 35 34 34 33 33 26 9 16 16 19 17 16 20 31 9 7 6 10 22 5 10 20 14 12 10 14 4 9 21 7 18 17 23 20 25 25 28 19 14 10 15
38 37 35 35 34 33 34 34 33 33 30 20 7 16 17 17 17 27 22 31 10 12 10 10 14 8 22 2 17 6 9 16 4 3 16 26 20 4 9 22 28 11 27 38 3 12 3
39 36 34 32 31 31 32 34 33 35 28 17 18 18 14 24 25 36 26 33 4 18 16 12 13 18 9 6 14 8 9 7 10 19 23 16 18 16 25 15 24 22 28 54 25 37 8
40 37 32 29 28 28 30 32 31 31 33 23 18 20 12 27 23 26 29 14 13 26 18 14 11 6 3 13 10 10 5 14 6 20 19 23 16 22 28 32 34 21 33 21 4 8 13
39 36 30 28 25 26 29 30 30 28 25 22 15 11 19 31 46 37 25 24 28 27 25 20 8 3 9 14 10 7 11 15 4 6 15 13 26 28 22 7 21 29 32 51 22 14 32
40 35 28 26 25 25 27 29 29 26 22 19 17 18 8 14 30 35 35 19 33 22 25 23 15 18 12 10 9 12 14 10 21 17 17 14 21 24 30 27 28 29 22 39 44 28 25
41 37 29 25 24 26 28 30 29 23 18 7 17 14 13 35 15 25 31 28 26 28 22 31 26 22 12 11 10 10 12 13 14 19 16 9 16 16 24 31 33 37 37 35 23 39 21
41 37 30 26 25 27 28 27 25 22 12 9 12 18 16 29 31 24 24 33 38 32 31 26 30 21 20 17 9 13 18 17 1 10 15 8 15 19 25 28 18 25 32 39 34 32 13
40 37 33 27 25 27 28 28 24 18 12 6 15 15 22 21 25 25 33 29 31 42 33 31 23 21 6 11 0 15 14 8 8 18 17 16 17 16 21 22 25 21 19 20 39 25 12
40 37 34 29 26 27 28 27 23 16 13 10 12 10 22 20 34 22 35 23 21 24 20 36 25 26 24 17 16 11 15 14 22 16 14 8 15 18 20 21 25 17 14 22 27 31 32
44 38 36 32 27 28 28 27 22 16 13 9 12 11 14 20 23 26 31 27 28 27 31 43 8 23 29 18 16 10 15 2 4 15 13 8 9 16 21 14 24 18 8 19 16 25 31
44 38 37 31 28 29 26 23 21 16 13 11 9 16 10 26 41 26 20 23 28 38 18 30 28 29 37 22 19 13 12 10 10 18 12 17 16 22 21 19 12 18 7 12 12 6 26
33 40 34 28 25 27 24 21 19 17 14 9 7 13 12 25 41 28 27 28 32 22 21 27 24 29 26 24 20 7 18 14 12 13 9 14 17 18 15 14 16 11 7 15 14 21 16
35 38 30 25 23 25 22 20 18 18 16 10 5 14 11 21 32 29 31 37 39 30 30 11 38 34 26 17 12 6 14 11 12 16 19 14 16 15 14 13 9 9 18 22 16 18 21
Wind_Direction_500mb
43 43 45 46 50 48 39 28 20 12 11 9 11 9 6 2 357 360 359 356 357 357 357 360 21 136 158 211 40 312 197 180 167 175 200 212 222 239 257 60 234 116 120 99 144 151 170
39 39 44 45 45 42 33 22 12 6 4 1 0 2 3 358 355 354 355 350 348 354 5 11 97 150 228 160 26 89 149 162 182 190 203 215 229 265 321 259 53 99 113 132 138 123 140
33 35 39 40 37 32 27 19 11 5 360 355 352 356 357 357 355 353 350 345 346 6 33 61 117 107 332 83 101 99 118 174 188 202 208 212 238 224 223 203 137 159 129 91 101 148 116
29 30 30 30 28 23 18 16 9 3 359 351 347 352 353 354 354 350 346 343 359 32 59 91 118 92 89 125 143 111 133 169 198 207 219 217 230 259 253 110 206 223 194 162 126 159 102
28 28 25 24 24 20 14 11 5 358 354 348 343 348 350 349 351 354 353 18 59 31 75 113 63 317 102 165 206 178 167 217 192 203 222 233 225 242 200 234 214 201 167 337 114 133 125
27 25 23 19 17 16 11 4 358 351 346 343 339 341 347 343 347 0 8 37 78 45 145 102 136 254 162 89 147 180 190 151 178 186 199 212 217 226 229 226 277 43 85 113 126 138 133
27 25 22 19 15 9 4 357 349 346 340 336 336 337 342 326 342 8 16 360 274 185 214 20 42 66 127 80 118 172 176 185 180 194 204 206 219 217 229 250 83 98 131 156 121 146 154
26 24 20 17 13 7 2 355 347 343 338 332 330 331 331 314 330 3 36 354 13 338 271 85 72 92 152 183 127 153 175 190 199 207 217 190 232 222 292 85 260 246 112 78 110 170 241
18 20 19 16 10 4 359 353 347 341 336 330 324 325 320 290 309 342 333 343 343 321 256 123 71 75 127 197 116 146 208 169 219 212 217 225 197 75 212 215 251 261 260 176 124 183 230
10 10 11 11 10 4 359 353 345 340 335 328 317 315 305 237 335 301 313 324 336 296 265 139 181 97 154 166 114 148 249 283 231 207 203 254 103 233 223 241 225 259 55 294 132 246 143
3 2 2 2 1 1 359 353 347 339 334 325 312 297 281 220 227 282 276 323 321 291 242 99 93 94 164 249 136 163 201 221 209 170 245 140 160 213 235 237 214 262 221 277 259 291 307
354 353 353 353 353 353 353 352 345 340 332 324 311 285 271 260 245 255 299 308 309 237 132 132 144 191 196 167 118 130 189 242 69 217 234 318 244 226 241 228 266 272 252 259 252 249 250
348 347 346 345 345 345 346 346 345 339 333 322 306 279 250 226 182 252 291 292 236 267 120 149 179 192 225 145 141 188 186 189 217 208 191 193 195 219 256 229 202 227 234 223 221 212 240
341 342 341 339 339 339 341 342 339 338 332 322 303 273 244 225 231 256 277 249 264 39 226 119 239 216 220 178 125 162 179 206 214 286 267 228 176 190 184 246 195 217 249 262 57 332 354
335 337 337 337 337 335 336 340 338 336 331 324 305 269 236 245 221 225 247 237 242 241 48 249 162 236 158 186 288 235 322 39 44 340 334 270 177 153 175 230 264 218 226 266 318 190 298
330 333 333 334 334 334 333 335 337 336 332 327 285 235 223 210 203 204 237 260 343 304 294 246 253 206 252 162 221 227 160 102 166 304 299 29 268 178 181 244 240 255 322 242 212 222 270
320 325 327 329 331 332 334 334 336 336 335 326 238 227 173 196 187 222 234 244 190 194 228 255 265 241 267 193 274 191 110 115 233 117 296 306 290 211 207 216 254 207 237 238 276 93 210
314 317 321 325 329 332 333 336 337 337 344 343 267 237 175 181 214 226 229 247 137 188 213 238 285 297 274 205 251 255 300 73 60 316 295 1 301 270 208 309 123 127 274 272 262 192 150
309 310 312 317 325 333 338 338 340 340 346 346 257 236 194 193 227 228 230 262 204 237 202 219 243 234 162 272 247 264 230 75 311 281 16 353 258 252 249 204 210 231 245 233 98 28 276
303 303 303 309 317 327 334 338 338 341 339 336 267 232 183 211 237 264 252 208 210 238 264 216 249 263 230 239 208 278 223 152 193 330 46 303 271 289 302 271 264 275 319 319 188 191 227
297 295 294 296 307 318 329 337 335 334 335 330 236 259 341 203 220 235 252 213 228 212 213 234 218 230 234 240 218 207 259 174 184 127 244 257 278 289 291 306 284 275 144 289 293 280 260
288 289 283 282 294 307 319 329 334 330 332 304 297 312 320 263 285 255 228 244 243 229 203 227 225 222 231 249 293 332 304 258 266 160 241 248 281 275 286 281 270 268 269 259 208 253 308
277 279 275 273 287 298 311 320 328 328 343 297 314 283 270 276 243 241 237 220 240 243 256 229 208 236 195 223 260 343 300 297 264 258 270 265 297 294 280 299 298 277 263 259 254 262 310
268 272 269 267 280 291 302 312 322 325 305 306 309 296 272 261 253 248 243 246 220 240 238 232 238 215 132 117 297 267 275 240 252 246 248 256 267 279 273 286 264 258 1 328 315 244 257
262 264 260 261 275 285 293 302 309 315 298 270 290 288 285 274 271 255 247 245 236 249 250 245 225 237 163 184 230 206 221 227 231 219 250 191 273 277 280 255 261 265 229 229 260 278 271
258 253 252 255 267 274 285 295 302 306 298 279 291 263 267 285 255 309 286 247 239 223 211 228 175 187 197 218 216 234 253 18 276 178 217 254 235 267 278 309 297 33 3 325 352 287 290
252 241 243 245 255 266 274 286 293 295 294 285 240 284 258 270 274 269 247 275 250 258 275 194 181 201 209 225 240 236 258 154 255 248 202 211 231 249 240 254 296 68 177 327 245 308 333
251 247 234 239 251 261 267 275 282 287 285 278 228 271 247 276 271 279 268 265 259 269 266 156 183 204 204 227 241 162 267 187 226 269 266 247 265 260 226 267 275 12 245 261 15 323 355
244 231 226 235 249 257 259 263 270 277 280 277 289 290 269 253 264 286 265 248 256 272 299 179 224 195 212 210 232 199 244 220 214 272 162 241 247 299 320 353 254 293 299 291 319 302 308
Wind_Speed_850mb
24 22 19 16 14 12 11 10 11 12 14 15 17 18 18 17 14 16 19 21 22 21 16 12 6 9 16 11 12 10 7 18 21 11 17 20 21 24 24 5 10 24 10 24 28 35 15
27 24 20 17 15 13 12 11 12 13 15 16 17 18 19 16 14 16 19 23 24 19 16 11 4 13 2 6 8 5 12 17 16 16 16 20 18 10 15 8 6 5 6 31 21 23 13
29 25 20 18 17 15 13 13 13 14 15 16 17 18 18 15 14 16 21 24 20 14 16 15 19 13 7 15 10 12 11 10 17 16 17 17 12 20 4 15 11 19 18 21 23 23 15
31 27 23 20 17 16 15 14 14 15 16 16 17 18 18 14 13 18 23 19 11 10 14 17 15 13 12 10 7 8 9 6 16 15 13 14 14 21 24 13 11 22 22 18 16 11 13
32 29 24 22 19 17 16 16 15 16 16 16 17 18 16 12 13 19 25 9 6 9 9 8 6 5 18 8 8 10 6 5 13 16 16 13 14 29 19 24 28 21 8 10 18 9 14
32 31 26 22 20 19 18 18 18 18 16 15 16 17 16 10 11 18 21 6 4 11 7 6 8 14 13 9 5 11 6 8 14 17 16 21 21 21 26 27 7 9 2 16 21 15 17
36 32 29 26 22 21 20 20 20 20 18 15 15 16 13 8 8 15 23 12 5 5 14 18 15 10 11 9 11 14 9 9 16 22 24 32 24 26 33 13 8 19 17 23 22 22 27
38 35 33 30 26 24 22 21 21 22 20 16 14 14 12 6 4 10 17 15 20 9 3 9 8 6 2 5 19 14 13 15 19 25 22 19 26 30 9 4 14 24 7 21 18 25 23
36 36 35 33 30 28 25 23 22 22 21 18 15 13 11 5 4 8 8 10 15 14 16 12 9 9 16 17 11 18 19 10 19 12 21 25 20 19 7 14 22 23 6 13 24 14 8
34 34 34 35 34 31 29 27 25 24 22 20 15 12 9 4 1 7 2 11 18 9 12 23 15 11 8 14 14 8 7 10 9 12 15 20 19 2 23 26 21 29 6 3 3 24 11
32 33 33 33 33 34 32 30 29 27 25 23 17 11 10 14 8 6 8 16 14 8 10 8 14 7 7 13 19 16 9 12 11 12 19 10 9 20 25 23 14 3 7 15 5 24 23
32 33 33 33 33 33 33 33 31 29 26 24 20 13 11 10 20 13 14 19 14 16 3 12 10 16 19 13 9 15 16 14 6 7 17 9 8 17 21 10 14 20 10 13 16 23 24
34 34 34 33 33 34 33 33 33 32 29 25 21 16 16 15 7 11 14 14 17 14 10 12 7 15 19 18 15 18 17 23 17 19 24 15 21 21 14 22 20 26 32 20 20 18 8
34 35 35 34 33 33 33 33 34 34 32 26 21 17 18 22 18 14 11 20 24 12 8 11 7 8 10 9 15 10 13 14 8 22 8 16 25 27 22 33 14 24 38 20 1 11 12
35 35 35 35 34 34 34 33 34 34 34 26 16 10 14 15 20 16 19 22 13 2 7 9 14 19 16 14 13 11 12 16 12 18 17 6 13 17 14 20 22 10 28 37 13 24 8
38 36 34 35 34 35 35 34 34 33 33 26 9 16 16 19 17 16 20 31 9 7 6 10 22 5 10 20 14 12 10 14 4 9 21 7 18 17 23 20 25 25 28 19 14 10 15
38 37 35 35 34 33 34 34 33 33 30 20 7 16 17 17 17 27 22 31 10 12 10 10 14 8 22 2 17 6 9 16 4 3 16 26 20 4 9 22 28 11 27 38 3 12 3
39 36 34 32 31 31 32 34 33 35 28 17 18 18 14 24 25 36 26 33 4 18 16 12 13 18 9 6 14 8 9 7 10 19 23 16 18 16 25 15 24 22 28 54 25 37 8
40 37 32 29 28 28 30 32 31 31 33 23 18 20 12 27 23 26 29 14 13 26 18 14 11 6 3 13 10 10 5 14 6 20 19 23 16 22 28 32 34 21 33 21 4 8 13
39 36 30 28 25 26 29 30 30 28 25 22 15 11 19 31 46 37 25 24 28 27 25 20 8 3 9 14 10 7 11 15 4 6 15 13 26 28 22 7 21 29 32 51 22 14 32
40 35 28 26 25 25 27 29 29 26 22 19 17 18 8 14 30 35 35 19 33 22 25 23 15 18 12 10 9 12 14 10 21 17 17 14 21 24 30 27 28 29 22 39 44 28 25
41 37 29 25 24 26 28 30 29 23 18 7 17 14 13 35 15 25 31 28 26 28 22 31 26 22 12 11 10 10 12 13 14 19 16 9 16 16 24 31 33 37 37 35 23 39 21
41 37 30 26 25 27 28 27 25 22 12 9 12 18 16 29 31 24 24 33 38 32 31 26 30 21 20 17 9 13 18 17 1 10 15 8 15 19 25 28 18 25 32 39 34 32 13
40 37 33 27 25 27 28 28 24 18 12 6 15 15 22 21 25 25 33 29 31 42 33 31 23 21 6 11 0 15 14 8 8 18 17 16 17 16 21 22 25 21 19 20 39 25 12
40 37 34 29 26 27 28 27 23 16 13 10 12 10 22 20 34 22 35 23 21 24 20 36 25 26 24 17 16 11 15 14 22 16 14 8 15 18 20 21 25 17 14 22 27 31 32
44 38 36 32 27 28 28 27 22 16 13 9 12 11 14 20 23 26 31 27 28 27 31 43 8 23 29 18 16 10 15 2 4 15 13 8 9 16 21 14 24 18 8 19 16 25 31
44 38 37 31 28 29 26 23 21 16 13 11 9 16 10 26 41 26 20 23 28 38 18 30 28 29 37 22 19 13 12 10 10 18 12 17 16 22 21 19 12 18 7 12 12 6 26
33 40 34 28 25 27 24 21 19 17 14 9 7 13 12 25 41 28 27 28 32 22 21 27 24 29 26 24 20 7 18 14 12 13 9 14 17 18 15 14 16 11 7 15 14 21 16
35 38 30 25 23 25 22 20 18 18 16 10 5 14 11 21 32 29 31 37 39 30 30 11 38 34 26 17 12 6 14 11 12 16 19 14 16 15 14 13 9 9 18 22 16 18 21
Wind_Direction_850mb
43 43 45 46 50 48 39 28 20 12 11 9 11 9 6 2 357 360 359 356 357 357 357 360 21 136 158 211 40 312 197 180 167 175 200 212 222 239 257 60 234 116 120 99 144 151 170
39 39 44 45 45 42 33 22 12 6 4 1 0 2 3 358 355 354 355 350 348 354 5 11 97 150 228 160 26 89 149 162 182 190 203 215 229 265 321 259 53 99 113 132 138 123 140
33 35 39 40 37 32 27 19 11 5 360 355 352 356 357 357 355 353 350 345 346 6 33 61 117 107 332 83 101 99 118 174 188 202 208 212 238 224 223 203 137 159 129 91 101 148 116
29 30 30 30 28 23 18 16 9 3 359 351 347 352 353 354 354 350 346 343 359 32 59 91 118 92 89 125 143 111 133 169 198 207 219 217 230 259 253 110 206 223 194 162 126 159 102
28 28 25 24 24 20 14 11 5 358 354 348 343 348 350 349 351 354 353 18 59 31 75 113 63 317 102 165 206 178 167 217 192 203 222 233 225 242 200 234 214 201 167 337 114 133 125
27 25 23 19 17 16 11 4 358 351 346 343 339 341 347 343 347 0 8 37 78 45 145 102 136 254 162 89 147 180 190 151 178 186 199 212 217 226 229 226 277 43 85 113 126 138 133
27 25 22 19 15 9 4 357 349 346 340 336 336 337 342 326 342 8 16 360 274 185 214 20 42 66 127 80 118 172 176 185 180 194 204 206 219 217 229 250 83 98 131 156 121 146 154
26 24 20 17 13 7 2 355 347 343 338 332 330 331 331 314 330 3 36 354 13 338 271 85 72 92 152 183 127 153 175 190 199 207 217 190 232 222 292 85 260 246 112 78 110 170 241
18 20 19 16 10 4 359 353 347 341 336 330 324 325 320 290 309 342 333 343 343 321 256 123 71 75 127 197 116 146 208 169 219 212 217 225 197 75 212 215 251 261 260 176 124 183 230
10 10 11 11 10 4 359 353 345 340 335 328 317 315 305 237 335 301 313 324 336 296 265 139 181 97 154 166 114 148 249 283 231 207 203 254 103 233 223 241 225 259 55 294 132 246 143
3 2 2 2 1 1 359 353 347 339 334 325 312 297 281 220 227 282 276 323 321 291 242 99 93 94 164 249 136 163 201 221 209 170 245 140 160 213 235 237 214 262 221 277 259 291 307
354 353 353 353 353 353 353 352 345 340 332 324 311 285 271 260 245 255 299 308 309 237 132 132 144 191 196 167 118 130 189 242 69 217 234 318 244 226 241 228 266 272 252 259 252 249 250
348 347 346 345 345 345 346 346 345 339 333 322 306 279 250 226 182 252 291 292 236 267 120 149 179 192 225 145 141 188 186 189 217 208 191 193 195 219 256 229 202 227 234 223 221 212 240
341 342 341 339 339 339 341 342 339 338 332 322 303 273 244 225 231 256 277 249 264 39 226 119 239 216 220 178 125 162 179 206 214 286 267 228 176 190 184 246 195 217 249 262 57 332 354
335 337 337 337 337 335 336 340 338 336 331 324 305 269 236 245 221 225 247 237 242 241 48 249 162 236 158 186 288 235 322 39 44 340 334 270 177 153 175 230 264 218 226 266 318 190 298
330 333 333 334 334 334 333 335 337 336 332 327 285 235 223 210 203 204 237 260 343 304 294 246 253 206 252 162 221 227 160 102 166 304 299 29 268 178 181 244 240 255 322 242 212 222 270
320 325 327 329 331 332 334 334 336 336 335 326 238 227 173 196 187 222 234 244 190 194 228 255 265 241 267 193 274 191 110 115 233 117 296 306 290 211 207 216 254 207 237 238 276 93 210
314 317 321 325 329 332 333 336 337 337 344 343 267 237 175 181 214 226 229 247 137 188 213 238 285 297 274 205 251 255 300 73 60 316 295 1 301 270 208 309 123 127 274 272 262 192 150
309 310 312 317 325 333 338 338 340 340 346 346 257 236 194 193 227 228 230 262 204 237 202 219 243 234 162 272 247 264 230 75 311 281 16 353 258 252 249 204 210 231 245 233 98 28 276
303 303 303 309 317 327 334 338 338 341 339 336 267 232 183 211 237 264 252 208 210 238 264 216 249 263 230 239 208 278 223 152 193 330 46 303 271 289 302 271 264 275 319 319 188 191 227
297 295 294 296 307 318 329 337 335 334 335 330 236 259 341 203 220 235 252 213 228 212 213 234 218 230 234 240 218 207 259 174 184 127 244 257 278 289 291 306 284 275 144 289 293 280 260
288 289 283 282 294 307 319 329 334 330 332 304 297 312 320 263 285 255 228 244 243 229 203 227 225 222 231 249 293 332 304 258 266 160 241 248 281 275 286 281 270 268 269 259 208 253 308
277 279 275 273 287 298 311 320 328 328 343 297 314 283 270 276 243 241 237 220 240 243 256 229 208 236 195 223 260 343 300 297 264 258 270 265 297 294 280 299 298 277 263 259 254 262 310
268 272 269 267 280 291 302 312 322 325 305 306 309 296 272 261 253 248 243 246 220 240 238 232 238 215 132 117 297 267 275 240 252 246 248 256 267 279 273 286 264 258 1 328 315 244 257
262 264 260 261 275 285 293 302 309 315 298 270 290 288 285 274 271 255 247 245 236 249 250 245 225 237 163 184 230 206 221 227 231 219 250 191 273 277 280 255 261 265 229 229 260 278 271
258 253 252 255 267 274 285 295 302 306 298 279 291 263 267 285 255 309 286 247 239 223 211 228 175 187 197 218 216 234 253 18 276 178 217 254 235 267 278 309 297 33 3 325 352 287 290
252 241 243 245 255 266 274 286 293 295 294 285 240 284 258 270 274 269 247 275 250 258 275 194 181 201 209 225 240 236 258 154 255 248 202 211 231 249 240 254 296 68 177 327 245 308 333
251 247 234 239 251 261 267 275 282 287 285 278 228 271 247 276 271 279 268 265 259 269 266 156 183 204 204 227 241 162 267 187 226 269 266 247 265 260 226 267 275 12 245 261 15 323 355
244 231 226 235 249 257 259 263 270 277 280 277 289 290 269 253 264 286 265 248 256 272 299 179 224 195 212 210 232 199 244 220 214 272 162 241 247 299 320 353 254 293 299 291 319 302 308